Location: North Mitre
(40.7833°S, 175.4667°E)
Time: 03:23:08
(UTC+00:00)

IGS 5A - Pass Details

Date: 04 August 2024
Orbit: 568 x 571 km, 97.4° (Epoch: 26 July)

Event Time Altitude Azimuth Distance (km) Brightness Sun altitude
Rises 18:42:48 0° 2° (N) 2,768 7.2 -7.6°
Reaches altitude 10° 18:44:58 10° 357° (N) 1,880 6.2 -7.2°
Maximum altitude 18:48:58 53° 280° (W) 714 3.6 -6.4°
Drops below altitude 10° 18:53:01 10° 202° (SSW) 1,909 5.7 -5.7°
Sets 18:55:15 0° 196° (SSW) 2,816 6.6 -5.3°
